FW0014 Weather Reports


time (UTC)temp
C
wind
direction
speed
KPH
gust
KPH
rain 1hr
cm
rain 24hr
cm
rain mn
cm
humidity
%
barometer
mb
20260507010518 15 4 4.8 12.9 0.00 0.25 0.25 84 1014.1
20260507010332 16 33 6.4 11.3 0.00 0.25 0.25 84 1015.3
20260507010111 15 18 4.8 11.3 0.00 0.25 0.25 84 1013.7
20260507005829 16 8 8.0 12.9 0.00 0.25 0.25 84 1015.1
20260507005552 16 9 4.8 11.3 0.00 0.25 0.25 84 1013.8
20260507005324 16 34 4.8 11.3 0.00 0.25 0.25 84 1015.1
20260507005046 16 24 4.8 11.3 0.00 0.25 0.25 84 1013.6
20260507004821 16 32 3.2 11.3 0.00 0.25 0.25 84 1015.1
20260507004541 16 41 3.2 11.3 0.00 0.25 0.25 84 1013.6
20260507004318 16 28 4.8 16.1 0.00 0.25 0.25 84 1015.1
20260507004030 16 27 4.8 16.1 0.00 0.25 0.25 84 1013.5
20260507003815 16 50 8.0 16.1 0.00 0.25 0.25 83 1015.0
20260507003516 16 359 3.2 12.9 0.00 0.25 0.25 84 1013.5
20260507003331 16 20 6.4 12.9 0.00 0.25 0.25 84 1014.9
20260507003012 16 4 4.8 9.7 0.00 0.25 0.25 84 1013.5
20260507002828 16 19 4.8 12.9 0.00 0.25 0.25 84 1014.8
20260507002504 16 14 3.2 12.9 0.00 0.25 0.25 84 1013.4
20260507002324 16 25 4.8 12.9 0.00 0.25 0.25 84 1014.7
20260507002101 16 43 4.8 12.9 0.00 0.25 0.25 84 1013.3
20260507001820 16 19 4.8 12.9 0.00 0.25 0.25 84 1014.8
20260507001558 16 36 4.8 12.9 0.00 0.25 0.25 84 1013.4
20260507001317 16 27 6.4 12.9 0.00 0.25 0.25 84 1014.8
20260507001046 16 4 4.8 12.9 0.00 0.25 0.25 84 1013.3
20260507000832 16 9 6.4 12.9 0.00 0.25 0.25 84 1014.8
20260507000536 16 15 6.4 16.1 0.00 0.25 0.25 84 1013.4
20260507000328 16 17 6.4 16.1 0.00 0.25 0.25 84 1014.7
20260507000030 16 11 6.4 16.1 0.00 0.25 0.25 84 1013.2
20260506235824 16 19 8.0 16.1 0.00 0.25 0.25 84 1014.7
20260506235524 16 354 6.4 12.9 0.00 0.25 0.25 84 1013.2
20260506235319 16 29 8.0 12.9 0.00 0.25 0.25 84 1014.6
20260506235017 16 10 4.8 16.1 0.00 0.25 0.25 84 1013.0
20260506234815 16 14 6.4 16.1 0.00 0.25 0.25 84 1014.6
20260506234507 16 33 8.0 16.1 0.00 0.25 0.25 84 1013.0
20260506234333 16 14 8.0 16.1 0.00 0.25 0.25 84 1014.6
20260506234002 16 24 6.4 16.1 0.00 0.25 0.25 84 1013.1
20260506233829 16 32 8.0 16.1 0.00 0.25 0.25 84 1014.5
20260506233556 16 33 4.8 12.9 0.00 0.25 0.25 84 1013.0
20260506233324 16 23 6.4 12.9 0.00 0.25 0.25 84 1014.6
20260506233052 16 4 4.8 9.7 0.00 0.25 0.25 84 1013.2
20260506232840 16 41 3.2 9.7 0.00 0.25 0.25 85 1014.7
20260506232517 16 14 4.8 9.7 0.00 0.25 0.25 84 1013.3
20260506232316 16 4 4.8 9.7 0.00 0.25 0.25 84 1014.9
20260506232002 16 359 4.8 12.9 0.00 0.25 0.25 84 1013.3
20260506231849 16 9 4.8 12.9 0.00 0.25 0.25 84 1014.8
20260506231534 16 19 4.8 12.9 0.00 0.25 0.25 84 1013.3
20260506231343 16 27 8.0 14.5 0.00 0.25 0.25 84 1014.6
20260506231100 15 23 3.2 14.5 0.00 0.25 0.25 85 1013.3
20260506230820 16 17 4.8 14.5 0.00 0.25 0.25 85 1014.7
20260506230556 15 348 8.0 14.5 0.00 0.25 0.25 84 1013.1
20260506230317 16 26 8.0 12.9 0.00 0.25 0.25 84 1014.7
20260506230050 15 20 4.8 14.5 0.00 0.25 0.25 84 1013.2
20260506225832 16 33 4.8 17.7 0.00 0.25 0.25 84 1014.7
20260506225538 15 62 4.8 17.7 0.00 0.25 0.25 84 1013.2
20260506225327 16 35 8.0 17.7 0.00 0.25 0.25 84 1014.7
20260506225035 15 21 8.0 17.7 0.00 0.25 0.25 85 1013.3
20260506224845 16 354 3.2 16.1 0.00 0.25 0.25 85 1014.7
20260506224559 15 354 4.8 16.1 0.00 0.25 0.25 85 1013.0
20260506224321 16 42 8.0 16.1 0.00 0.25 0.25 84 1014.4
20260506224049 15 14 6.4 17.7 0.00 0.25 0.25 85 1013.0
20260506223818 16 43 6.4 17.7 0.00 0.25 0.25 85 1014.6
20260506223542 15 16 9.7 17.7 0.00 0.25 0.25 85 1012.9
20260506223315 15 14 8.0 17.7 0.00 0.25 0.25 86 1014.3
20260506223036 15 316 3.2 17.7 0.00 0.25 0.25 86 1012.7
20260506222831 15 354 8.0 17.7 0.00 0.25 0.25 85 1014.5
20260506222530 15 359 11.3 17.7 0.00 0.25 0.25 85 1012.8
20260506222328 15 20 11.3 17.7 0.00 0.25 0.25 85 1014.2
20260506222012 15 30 9.7 17.7 0.00 0.25 0.25 85 1012.6
20260506221826 15 28 11.3 17.7 0.00 0.25 0.25 85 1014.2
20260506221506 15 345 6.4 19.3 0.00 0.25 0.25 86 1012.8
20260506221322 15 21 9.7 19.3 0.00 0.25 0.25 85 1014.5
20260506221101 15 359 12.9 19.3 0.00 0.25 0.25 85 1012.7
20260506220838 15 359 12.9 19.3 0.00 0.25 0.25 85 1014.2
20260506220527 15 21 9.7 19.3 0.00 0.25 0.25 85 1012.6
20260506220333 15 359 11.3 17.7 0.00 0.25 0.25 85 1014.5
20260506220014 15 60 8.0 16.1 0.00 0.25 0.25 86 1012.8
20260506215849 15 346 8.0 16.1 0.00 0.25 0.25 86 1014.3
20260506215552 15 341 8.0 19.3 0.00 0.25 0.25 86 1012.7
20260506215326 15 35 8.0 19.3 0.00 0.25 0.25 87 1014.4
20260506215042 14 30 9.7 19.3 0.00 0.25 0.25 86 1012.7
20260506214823 15 354 12.9 19.3 0.00 0.25 0.25 86 1014.3
20260506214539 14 350 9.7 16.1 0.00 0.25 0.25 86 1013.0
20260506214320 15 326 11.3 14.5 0.00 0.25 0.25 87 1014.7
20260506214032 14 13 6.4 14.5 0.00 0.25 0.25 86 1013.0
20260506213817 15 354 8.0 19.3 0.00 0.25 0.25 87 1014.8
20260506213531 14 15 8.0 19.3 0.00 0.25 0.25 87 1013.1
20260506213333 14 26 9.7 19.3 0.00 0.25 0.25 87 1014.4
20260506213016 14 316 11.3 16.1 0.00 0.25 0.25 87 1012.9
20260506212830 14 345 11.3 17.7 0.00 0.25 0.25 87 1014.7
20260506212507 14 359 6.4 17.7 0.00 0.25 0.25 87 1013.4
20260506212328 14 359 8.0 17.7 0.00 0.25 0.25 87 1015.2
20260506212102 14 330 9.7 17.7 0.00 0.25 0.25 87 1013.6
20260506211824 14 345 9.7 19.3 0.00 0.25 0.25 87 1015.1
20260506211552 13 346 9.7 19.3 0.00 0.25 0.25 88 1013.6
20260506211339 14 359 12.9 19.3 0.00 0.25 0.25 87 1015.3
20260506211023 13 327 12.9 19.3 0.00 0.25 0.25 87 1013.6
20260506210836 14 359 14.5 19.3 0.00 0.25 0.25 87 1015.1
20260506210547 13 10 6.4 19.3 0.00 0.25 0.25 88 1013.5
20260506210331 14 359 9.7 19.3 0.00 0.25 0.25 87 1015.3
20260506210049 13 21 11.3 19.3 0.00 0.25 0.25 87 1013.6
20260506205828 14 359 9.7 19.3 0.00 0.25 0.25 87 1015.2
20260506205533 13 335 9.7 20.9 0.00 0.25 0.25 87 1013.6
20260506205324 14 21 12.9 20.9 0.00 0.25 0.25 87 1015.2
20260506205024 13 322 12.9 20.9 0.00 0.25 0.25 87 1013.5
20260506204817 14 354 12.9 19.3 0.00 0.25 0.25 87 1015.2
20260506204548 13 338 9.7 17.7 0.00 0.25 0.25 88 1013.4
20260506204332 14 21 11.3 17.7 0.00 0.25 0.25 88 1015.2
20260506204037 13 343 8.0 17.7 0.00 0.25 0.25 88 1013.5
20260506203828 14 327 9.7 20.9 0.00 0.25 0.25 88 1015.3
20260506203527 13 359 11.3 20.9 0.00 0.25 0.25 88 1013.6
20260506203326 13 359 9.7 20.9 0.00 0.25 0.25 88 1015.4
20260506203025 13 337 9.7 19.3 0.00 0.25 0.25 88 1013.7
20260506202821 13 324 9.7 19.3 0.00 0.25 0.25 88 1015.3
20260506202505 13 359 11.3 19.3 0.00 0.25 0.25 88 1013.4
20260506202319 13 336 11.3 19.3 0.00 0.25 0.25 88 1015.1
20260506202103 13 346 8.0 20.9 0.00 0.25 0.25 88 1013.3
20260506201854 13 33 11.3 20.9 0.00 0.25 0.25 88 1015.3
20260506201542 13 354 12.9 20.9 0.00 0.25 0.25 88 1013.6
20260506201328 13 31 11.3 25.7 0.00 0.25 0.25 88 1015.4
20260506201014 13 25 8.0 25.7 0.00 0.25 0.25 88 1013.7
20260506200824 13 12 12.9 25.7 0.00 0.25 0.25 88 1015.4
20260506200505 13 354 9.7 22.5 0.00 0.25 0.25 88 1013.7
20260506200340 13 29 12.9 22.5 0.00 0.25 0.25 88 1015.4
20260506200055 13 4 8.0 22.5 0.00 0.25 0.25 88 1013.6
20260506195830 13 323 14.5 22.5 0.00 0.25 0.25 88 1015.4
20260506195545 13 354 14.5 22.5 0.00 0.25 0.25 88 1013.5
20260506195326 13 320 9.7 19.3 0.00 0.25 0.25 89 1015.5
20260506195039 13 359 11.3 19.3 0.00 0.25 0.25 89 1013.5
20260506194822 13 354 11.3 19.3 0.00 0.25 0.25 89 1015.3
20260506194529 13 337 8.0 19.3 0.00 0.25 0.25 89 1013.7
20260506194317 13 359 12.9 19.3 0.00 0.25 0.25 89 1015.5
20260506194019 13 359 9.7 19.3 0.03 0.25 0.25 89 1013.6
20260506193814 13 10 9.7 19.3 0.03 0.25 0.25 89 1015.5
20260506193506 13 324 14.5 19.3 0.03 0.25 0.25 89 1013.8
20260506193329 13 359 12.9 19.3 0.03 0.25 0.25 89 1015.6
20260506193101 13 342 11.3 19.3 0.03 0.25 0.25 89 1013.7
20260506192825 13 342 14.5 19.3 0.03 0.25 0.25 89 1015.4
20260506192557 13 359 12.9 20.9 0.03 0.25 0.25 89 1013.5
20260506192342 13 4 11.3 22.5 0.03 0.25 0.25 90 1015.4
20260506192027 13 14 12.9 22.5 0.03 0.25 0.25 89 1013.5
20260506191836 13 321 14.5 22.5 0.03 0.25 0.25 89 1015.5
20260506191555 13 342 14.5 20.9 0.03 0.25 0.25 89 1013.7
20260506191331 13 343 12.9 17.7 0.03 0.25 0.25 89 1015.5
20260506191046 13 346 8.0 17.7 0.03 0.25 0.25 90 1013.7
20260506190829 13 4 11.3 17.7 0.03 0.25 0.25 90 1015.6
20260506190543 12 347 8.0 19.3 0.03 0.25 0.25 90 1013.9
20260506190325 13 319 12.9 19.3 0.03 0.25 0.25 90 1015.8
20260506190032 13 324 11.3 19.3 0.03 0.25 0.25 90 1013.7
20260506185822 13 359 8.0 19.3 0.03 0.25 0.25 90 1015.6
20260506185527 13 359 9.7 19.3 0.03 0.25 0.25 90 1013.8
20260506185319 13 359 8.0 17.7 0.03 0.25 0.25 90 1015.6
20260506185014 13 354 8.0 19.3 0.03 0.25 0.25 90 1013.9
20260506184814 13 347 9.7 19.3 0.03 0.25 0.25 90 1015.8
20260506184505 13 324 9.7 19.3 0.03 0.25 0.25 90 1013.9
20260506184331 13 16 11.3 19.3 0.03 0.25 0.25 89 1015.6
20260506184059 12 33 9.7 20.9 0.00 0.23 0.23 89 1013.7
20260506183827 13 359 9.7 20.9 0.00 0.23 0.23 89 1015.8
20260506183555 12 4 9.7 22.5 0.00 0.23 0.23 89 1014.3
20260506183324 13 16 11.3 22.5 0.00 0.23 0.23 89 1016.2
20260506183043 13 345 11.3 22.5 0.00 0.23 0.23 89 1013.9
20260506182819 13 4 11.3 22.5 0.00 0.23 0.23 89 1015.4
20260506182535 13 359 8.0 20.9 0.00 0.23 0.23 89 1013.7
20260506182316 13 320 12.9 20.9 0.00 0.23 0.23 89 1015.5
20260506182018 12 354 11.3 20.9 0.00 0.23 0.23 89 1013.6
20260506181851 13 4 12.9 20.9 0.00 0.23 0.23 89 1015.4
20260506181551 12 308 11.3 20.9 0.00 0.23 0.23 89 1013.5
20260506181325 13 323 12.9 20.9 0.00 0.23 0.23 89 1015.5
20260506181042 12 10 11.3 24.1 0.00 0.23 0.23 89 1013.5
20260506180822 13 359 14.5 24.1 0.00 0.23 0.23 89 1015.4
20260506180534 12 345 14.5 24.1 0.00 0.23 0.23 89 1013.7
20260506180317 13 318 14.5 24.1 0.00 0.23 0.23 89 1015.7
20260506180020 12 330 8.0 22.5 0.00 0.23 0.23 89 1013.6
20260506175833 13 349 11.3 24.1 0.00 0.23 0.23 89 1015.8
20260506175515 12 347 16.1 24.1 0.00 0.23 0.23 89 1014.1
20260506175329 13 348 16.1 24.1 0.00 0.23 0.23 89 1015.8
20260506175003 12 341 9.7 27.4 0.00 0.23 0.23 90 1013.3
20260506174826 13 4 14.5 27.4 0.00 0.23 0.23 89 1015.4
20260506174558 12 341 19.3 27.4 0.00 0.23 0.23 89 1013.9
20260506174323 13 334 17.7 27.4 0.00 0.23 0.23 90 1016.0
20260506174049 13 344 14.5 25.7 0.00 0.23 0.23 90 1013.9
20260506173819 13 320 14.5 25.7 0.00 0.23 0.23 90 1015.9
20260506173543 13 359 11.3 25.7 0.00 0.23 0.23 90 1013.7
20260506173314 13 343 9.7 25.7 0.00 0.23 0.23 90 1015.3
20260506173033 13 15 8.0 25.7 0.00 0.23 0.23 90 1013.2
20260506172827 13 14 14.5 25.7 0.00 0.23 0.23 90 1015.3
20260506172513 13 14 9.7 24.1 0.00 0.23 0.23 90 1013.2
20260506172323 13 359 8.0 24.1 0.00 0.23 0.23 90 1014.9
20260506172005 13 319 11.3 24.1 0.00 0.23 0.23 90 1013.5
20260506171821 13 359 16.1 24.1 0.00 0.23 0.23 90 1015.6
20260506171600 13 359 11.3 24.1 0.00 0.23 0.23 90 1013.6
20260506171316 13 359 12.9 22.5 0.00 0.23 0.23 90 1015.3
20260506171049 13 307 12.9 22.5 0.00 0.23 0.23 90 1013.1
20260506170833 13 359 11.3 22.5 0.00 0.23 0.23 90 1014.8
20260506170543 13 359 12.9 22.5 0.00 0.23 0.23 90 1012.7
20260506170329 13 359 12.9 22.5 0.00 0.23 0.23 90 1014.7
20260506170037 13 359 16.1 22.5 0.00 0.23 0.23 91 1012.8
20260506165826 13 318 9.7 17.7 0.00 0.23 0.23 91 1014.7
20260506165538 13 359 8.0 17.7 0.00 0.23 0.23 91 1012.7
20260506165322 13 359 8.0 17.7 0.00 0.23 0.23 91 1014.7
20260506165027 13 359 9.7 17.7 0.00 0.23 0.23 92 1012.3
20260506164817 13 359 11.3 17.7 0.00 0.23 0.23 92 1014.2
20260506164549 13 17 8.0 17.7 0.00 0.23 0.23 92 1012.1
20260506164331 13 359 8.0 17.7 0.00 0.23 0.23 92 1014.1
20260506164043 12 4 6.4 16.1 0.00 0.23 0.23 91 1012.2
20260506163848 13 16 8.0 16.1 0.00 0.23 0.23 91 1014.4
20260506163513 12 359 11.3 16.1 0.00 0.23 0.23 91 1012.4
20260506163322 13 4 8.0 16.1 0.00 0.23 0.23 92 1014.7
20260506163003 12 14 4.8 12.9 0.03 0.23 0.23 92 1012.8
20260506162818 13 354 6.4 12.9 0.03 0.23 0.23 92 1014.8
20260506162553 12 359 4.8 11.3 0.03 0.23 0.23 91 1012.6
20260506162315 12 354 6.4 16.1 0.03 0.23 0.23 91 1014.6
20260506162045 12 332 4.8 16.1 0.05 0.23 0.23 91 1012.5
20260506161829 12 27 4.8 16.1 0.05 0.23 0.23 91 1014.2
20260506161542 12 79 8.0 16.1 0.05 0.23 0.23 92 1012.2
20260506161327 12 154 6.4 17.7 0.05 0.23 0.23 92 1014.0
20260506161032 12 84 4.8 17.7 0.05 0.23 0.23 92 1011.8
20260506160822 12 59 8.0 22.5 0.05 0.23 0.23 92 1013.7
20260506160527 12 124 9.7 22.5 0.05 0.23 0.23 91 1011.8
20260506160318 12 85 9.7 25.7 0.08 0.23 0.23 91 1013.7
20260506160012 12 122 9.7 25.7 0.10 0.23 0.23 91 1011.9
20260506155854 12 137 9.7 25.7 0.10 0.23 0.23 91 1013.8
20260506155539 12 97 12.9 25.7 0.15 0.23 0.23 92 1011.5
20260506155329 12 57 11.3 20.9 0.18 0.23 0.23 92 1013.7
20260506155034 12 97 11.3 22.5 0.20 0.23 0.23 92 1011.5
20260506154825 12 110 11.3 22.5 0.20 0.23 0.23 92 1013.1
20260506154531 12 76 12.9 22.5 0.20 0.23 0.23 92 1011.0
20260506154323 12 63 11.3 19.3 0.20 0.23 0.23 91 1013.1
20260506154010 12 66 8.0 22.5 0.20 0.23 0.23 91 1011.8
20260506153820 12 124 9.7 22.5 0.20 0.23 0.23 91 1014.3
20260506153559 12 77 11.3 22.5 0.20 0.23 0.23 91 1011.9
20260506153336 12 93 8.0 16.1 0.20 0.23 0.23 91 1014.0
20260506153030 12 77 6.4 24.1 0.18 0.20 0.20 91 1013.0
20260506152832 12 23 3.2 24.1 0.18 0.20 0.20 91 1015.4
20260506152518 12 333 11.3 24.1 0.18 0.20 0.20 91 1013.0
20260506152327 12 342 16.1 24.1 0.18 0.20 0.20 91 1014.2
20260506152005 12 22 12.9 20.9 0.15 0.18 0.18 91 1012.7
20260506151824 12 359 9.7 16.1 0.15 0.18 0.18 91 1015.1
20260506151601 12 303 1.6 22.5 0.15 0.18 0.18 91 1013.7
20260506151321 12 57 9.7 22.5 0.15 0.18 0.18 91 1015.6
20260506151053 12 359 12.9 20.9 0.15 0.18 0.18 91 1013.3
20260506150817 12 27 9.7 19.3 0.15 0.18 0.18 91 1015.5
20260506150545 12 20 9.7 22.5 0.13 0.15 0.18 91 1013.6
20260506150334 12 4 8.0 24.1 0.13 0.15 0.15 91 1015.5
20260506150009 12 4 11.3 27.4 0.10 0.13 0.13 91 1013.5
20260506145830 12 26 11.3 27.4 0.08 0.10 0.10 91 1015.5
20260506145603 12 33 11.3 27.4 0.03 0.05 0.08 91 1013.3
20260506145325 12 30 14.5 25.7 0.03 0.05 0.05 91 1015.6
20260506145052 12 4 14.5 30.6 0.00 0.03 0.03 91 1013.9
20260506144820 13 322 17.7 30.6 0.00 0.03 0.03 90 1015.9
20260506144548 12 349 16.1 30.6 0.00 0.03 0.03 90 1013.3
20260506144315 13 315 17.7 30.6 0.00 0.03 0.03 91 1015.2
20260506144037 13 12 12.9 29.0 0.00 0.03 0.03 90 1012.7
20260506143827 13 14 14.5 29.0 0.00 0.03 0.03 90 1014.7
20260506143601 13 345 16.1 29.0 0.00 0.03 0.03 90 1012.8
20260506143323 13 4 16.1 29.0 0.00 0.03 0.03 90 1014.9
20260506143053 13 348 9.7 25.7 0.00 0.03 0.03 90 1012.9
20260506142819 13 34 14.5 25.7 0.00 0.03 0.03 89 1014.8
20260506142542 13 29 14.5 24.1 0.00 0.03 0.03 89 1012.5
20260506142402 13 8 14.5 25.7 0.00 0.03 0.03 89 1014.8
20260506142013 13 10 14.5 25.7 0.00 0.03 0.03 89 1012.7
20260506141830 14 26 12.9 25.7 0.00 0.03 0.03 88 1014.7
20260506141501 14 335 16.1 25.7 0.00 0.03 0.03 88 1012.8
20260506141325 14 359 14.5 27.4 0.00 0.03 0.03 88 1015.1
20260506141035 14 326 17.7 27.4 0.00 0.03 0.03 88 1012.7
20260506140841 15 359 16.1 27.4 0.00 0.03 0.03 88 1014.9
20260506140601 14 25 12.9 27.4 0.00 0.03 0.03 88 1012.6
20260506140316 15 344 12.9 27.4 0.00 0.03 0.03 87 1014.5
20260506140059 14 4 16.1 27.4 0.00 0.03 0.03 87 1012.2
20260506135831 15 39 12.9 25.7 0.00 0.03 0.03 87 1014.3
20260506135541 15 4 9.7 24.1 0.00 0.03 0.03 88 1012.2
20260506135327 15 350 9.7 24.1 0.00 0.03 0.03 88 1014.5
20260506135032 15 8 11.3 24.1 0.00 0.03 0.03 87 1012.2
20260506134824 15 4 16.1 24.1 0.00 0.03 0.03 87 1014.6
20260506134525 15 36 14.5 25.7 0.00 0.03 0.03 87 1012.1
20260506134320 15 354 16.1 25.7 0.00 0.03 0.03 87 1014.1
20260506134019 15 19 11.3 25.7 0.00 0.03 0.03 87 1011.4
20260506133835 15 38 16.1 25.7 0.00 0.03 0.03 87 1013.4
20260506133541 15 25 9.7 22.5 0.00 0.03 0.03 88 1010.9
20260506133350 15 81 12.9 22.5 0.00 0.03 0.03 88 1013.0
20260506133004 15 10 11.3 22.5 0.00 0.03 0.03 88 1010.6
20260506132824 15 37 11.3 22.5 0.00 0.03 0.03 88 1012.8
20260506132556 15 15 12.9 22.5 0.00 0.03 0.03 87 1010.4
20260506132340 15 27 12.9 19.3 0.00 0.03 0.03 87 1012.8
20260506132027 15 29 9.7 22.5 0.00 0.03 0.03 87 1010.6
20260506131834 16 8 8.0 22.5 0.00 0.03 0.03 87 1012.8
20260506131515 15 37 12.9 22.5 0.00 0.03 0.03 87 1010.5
20260506131328 16 37 12.9 22.5 0.00 0.03 0.03 87 1012.6
20260506131005 15 4 11.3 22.5 0.00 0.03 0.03 87 1010.5
20260506130824 16 10 12.9 22.5 0.00 0.03 0.03 87 1012.7
20260506130557 15 16 11.3 19.3 0.00 0.03 0.03 87 1010.5
20260506130320 16 359 8.0 19.3 0.00 0.03 0.03 88 1012.8
20260506130053 16 4 8.0 19.3 0.00 0.03 0.03 87 1010.5
20260506125816 16 8 8.0 14.5 0.00 0.03 0.03 88 1012.5
20260506125542 16 33 4.8 14.5 0.00 0.03 0.03 87 1010.2
20260506125332 16 50 8.0 14.5 0.03 0.03 0.03 87 1012.5
20260506125037 16 41 6.4 14.5 0.03 0.03 0.03 88 1010.3
20260506124829 16 42 6.4 14.5 0.03 0.03 0.03 88 1012.6
20260506124529 16 14 4.8 12.9 0.03 0.03 0.03 87 1010.2
20260506124325 16 31 4.8 16.1 0.03 0.03 0.03 87 1012.4
20260506124022 16 26 6.4 16.1 0.03 0.03 0.03 87 1010.1
20260506123821 16 62 8.0 16.1 0.03 0.03 0.03 87 1012.2
20260506123515 16 34 3.2 16.1 0.03 0.03 0.03 87 1009.8
20260506123318 16 54 4.8 14.5 0.03 0.03 0.03 87 1012.1
20260506123059 16 34 6.4 16.1 0.03 0.03 0.03 87 1009.8
20260506122816 16 47 8.0 16.1 0.03 0.03 0.03 86 1012.2
20260506122550 16 31 6.4 16.1 0.03 0.03 0.03 87 1009.8
20260506122333 16 32 6.4 14.5 0.03 0.03 0.03 87 1012.1
20260506122042 16 14 6.4 14.5 0.03 0.03 0.03 87 1009.8
20260506121828 16 4 6.4 14.5 0.03 0.03 0.03 87 1012.0
20260506121536 16 4 6.4 14.5 0.03 0.03 0.03 87 1009.7
20260506121340 17 359 8.0 14.5 0.03 0.03 0.03 87 1011.9
20260506121101 16 4 4.8 9.7 0.03 0.03 0.03 87 1009.6
20260506120816 17 16 6.4 14.5 0.03 0.03 0.03 87 1011.9
20260506120555 16 8 4.8 16.1 0.03 0.03 0.03 87 1009.4
20260506120331 17 4 4.8 16.1 0.03 0.03 0.03 87 1011.8
20260506120050 17 39 8.0 16.1 0.03 0.03 0.03 86 1009.3
20260506115826 17 59 9.7 14.5 0.03 0.03 0.03 87 1011.7
20260506115536 17 40 6.4 14.5 0.00 0.00 0.00 87 1009.2
20260506115320 17 41 8.0 14.5 0.00 0.00 0.00 87 1011.6
20260506115028 17 9 8.0 14.5 0.00 0.00 0.00 87 1009.2
20260506114816 17 11 4.8 9.7 0.00 0.00 0.00 87 1011.5
20260506114524 17 18 4.8 9.7 0.00 0.00 0.00 87 1009.1
20260506114331 18 4 4.8 8.0 0.00 0.00 0.00 88 1011.4
20260506114008 17 24 4.8 11.3 0.00 0.00 0.00 87 1009.2
20260506113827 18 359 4.8 11.3 0.00 0.00 0.00 87 1011.6
20260506113604 17 31 3.2 11.3 0.00 0.00 0.00 87 1009.2
20260506113321 18 25 6.4 11.3 0.00 0.00 0.00 86 1011.5
20260506113033 18 18 3.2 8.0 0.00 0.00 0.00 86 1009.1
20260506112818 18 34 4.8 9.7 0.00 0.00 0.00 86 1011.4
20260506112524 18 66 4.8 9.7 0.00 0.00 0.00 86 1009.1
20260506112314 18 73 3.2 9.7 0.00 0.00 0.00 86 1011.4
20260506112010 18 72 4.8 11.3 0.00 0.00 0.00 86 1008.9
20260506111829 18 48 3.2 6.4 0.00 0.00 0.00 87 1011.3
20260506111544 18 27 1.6 6.4 0.00 0.00 0.00 87 1009.1
20260506111325 18 27 1.6 9.7 0.00 0.00 0.00 87 1011.3
20260506111038 18 28 1.6 9.7 0.00 0.00 0.00 86 1009.0
20260506110842 18 28 3.2 9.7 0.00 0.00 0.00 86 1011.4
20260506110606 18 4 4.8 8.0 0.00 0.00 0.00 86 1009.0
20260506110317 19 4 4.8 8.0 0.00 0.00 0.00 86 1011.4
20260506110051 18 359 3.2 8.0 0.00 0.00 0.00 86 1009.0
20260506105814 19 359 4.8 8.0 0.00 0.00 0.00 86 1011.3
20260506105549 18 8 4.8 9.7 0.00 0.00 0.00 86 1009.0
20260506105330 19 4 6.4 9.7 0.00 0.00 0.00 86 1011.3
20260506105037 19 359 3.2 9.7 0.00 0.00 0.00 86 1008.8
20260506104827 19 359 4.8 9.7 0.00 0.00 0.00 86 1011.1
20260506104526 19 8 4.8 9.7 0.00 0.00 0.00 85 1008.7
20260506104323 19 337 4.8 9.7 0.00 0.00 0.00 85 1011.1
20260506104008 19 29 4.8 12.9 0.00 0.00 0.00 86 1008.8
20260506103819 20 359 3.2 12.9 0.00 0.00 0.00 86 1011.2
20260506103600 19 346 4.8 14.5 0.00 0.00 0.00 86 1008.8
20260506103315 20 18 6.4 14.5 0.00 0.00 0.00 85 1011.1
20260506103055 20 359 3.2 14.5 0.00 0.00 0.00 86 1008.7
20260506102830 20 348 8.0 14.5 0.00 0.00 0.00 85 1011.2
20260506102546 20 4 6.4 14.5 0.00 0.00 0.00 85 1008.7
20260506102327 21 354 9.7 14.5 0.00 0.00 0.00 85 1011.1
20260506102039 21 354 0.0 0.0 0.00 0.00 0.00 85 1008.6
20260506101822 22 359 0.0 0.0 0.00 0.00 0.00 86 1010.9
20260506101530 22 348 0.0 0.0 0.00 0.00 0.00 86 1008.4
20260506101318 22 329 0.0 0.0 0.00 0.00 0.00 88 1010.8
20260506101022 22 166 0.0 0.0 0.00 0.00 0.00 89 1008.4
20260506100814 23 166 0.0 0.0 0.00 0.00 0.00 89 1010.8
20260506100506 22 167 0.0 0.0 0.00 0.00 0.00 89 1008.3
20260506100331 23 166 0.0 0.0 0.00 0.00 0.00 89 1010.6
20260506100101 22 166 0.0 0.0 0.00 0.00 0.00 89 1008.2
20260506095827 23 141 0.0 0.0 0.00 0.00 0.00 89 1010.7
20260506095550 22 172 0.0 0.0 0.00 0.00 0.00 89 1008.1
20260506095342 23 161 0.0 0.0 0.00 0.00 0.00 89 1010.4
20260506095021 22 162 0.0 0.0 0.00 0.00 0.00 89 1008.0
20260506094816 23 144 0.0 0.0 0.00 0.00 0.00 89 1010.4
20260506094505 22 180 0.0 0.0 0.00 0.00 0.00 89 1008.0
20260506094333 23 181 0.0 0.0 0.00 0.00 0.00 89 1010.4
20260506094058 23 161 0.0 0.0 0.00 0.00 0.00 89 1008.0
20260506093827 23 160 0.0 0.0 0.00 0.00 0.00 89 1010.3
20260506093552 23 158 0.0 0.0 0.00 0.00 0.00 88 1007.8
20260506093323 23 162 0.0 0.0 0.00 0.00 0.00 88 1010.2
20260506093104 23 149 0.0 0.0 0.00 0.00 0.00 88 1007.8
20260506092818 23 149 0.0 0.0 0.00 0.00 0.00 88 1010.2
20260506092536 23 149 0.0 0.0 0.00 0.00 0.00 88 1007.8
20260506092314 23 149 0.0 0.0 0.00 0.00 0.00 88 1010.3
20260506092030 23 149 0.0 0.0 0.00 0.00 0.00 88 1007.9
20260506091832 23 149 0.0 0.0 0.00 0.00 0.00 88 1010.3
20260506091515 23 148 0.0 0.0 0.00 0.00 0.00 88 1007.8
20260506091322 23 149 0.0 0.0 0.00 0.00 0.00 88 1010.3
20260506091042 23 148 0.0 0.0 0.00 0.00 0.00 88 1007.8
20260506090818 23 149 0.0 0.0 0.00 0.00 0.00 88 1010.2
20260506090536 23 149 0.0 0.0 0.00 0.00 0.00 88 1007.8
20260506090333 23 149 0.0 0.0 0.00 0.00 0.00 88 1010.2
20260506090117 23 148 0.0 0.0 0.00 0.00 0.00 88 1007.7
20260506085828 23 149 0.0 0.0 0.00 0.00 0.00 88 1010.1
20260506085552 23 148 0.0 0.0 0.00 0.00 0.00 88 1007.6
20260506085326 23 149 0.0 0.0 0.00 0.00 0.00 88 1010.1
20260506085048 23 149 0.0 0.0 0.00 0.00 0.00 88 1007.7
20260506084822 23 148 0.0 0.0 0.00 0.00 0.00 88 1010.0
20260506084543 23 148 0.0 0.0 0.00 0.00 0.00 88 1007.6
20260506084316 23 149 0.0 0.0 0.00 0.00 0.00 88 1010.0
20260506084017 23 149 0.0 0.0 0.00 0.00 0.00 88 1007.6
20260506083832 23 149 0.0 0.0 0.00 0.00 0.00 88 1010.1
20260506083600 23 149 0.0 0.0 0.00 0.00 0.00 88 1007.7
20260506083329 23 149 0.0 0.0 0.00 0.00 0.00 88 1010.0
20260506083049 23 149 0.0 0.0 0.00 0.00 0.00 88 1007.5
20260506082825 23 149 0.0 0.0 0.00 0.00 0.00 88 1009.9
20260506082540 23 149 0.0 0.0 0.00 0.00 0.00 88 1007.5
20260506082322 23 135 0.0 0.0 0.00 0.00 0.00 88 1009.9
20260506082034 23 181 0.0 0.0 0.00 0.00 0.00 88 1007.5
20260506081838 23 181 0.0 0.0 0.00 0.00 0.00 88 1010.0
20260506081556 23 181 0.0 0.0 0.00 0.00 0.00 88 1007.5
20260506081333 23 181 0.0 0.0 0.00 0.00 0.00 88 1010.0
20260506081046 23 181 0.0 0.0 0.00 0.00 0.00 88 1007.5
20260506080848 23 181 0.0 0.0 0.00 0.00 0.00 88 1010.0
20260506080512 23 181 0.0 0.0 0.00 0.00 0.00 88 1007.6
20260506080345 23 181 0.0 0.0 0.00 0.00 0.00 88 1010.0
20260506073526 23 181 0.0 0.0 0.00 0.00 0.00 88 1007.7
20260506073317 23 181 0.0 0.0 0.00 0.00 0.00 88 1010.2
20260506073011 23 181 0.0 0.0 0.00 0.00 0.00 88 1007.8
20260506072833 23 181 0.0 0.0 0.00 0.00 0.00 88 1010.3
20260506072503 23 181 0.0 0.0 0.00 0.00 0.00 88 1007.9
20260506072330 23 181 0.0 0.0 0.00 0.00 0.00 87 1010.3
20260506072058 23 181 0.0 0.0 0.00 0.00 0.00 87 1007.8
20260506071827 23 181 0.0 0.0 0.00 0.00 0.00 87 1010.3
20260506071550 23 181 0.0 0.0 0.00 0.00 0.00 87 1008.0
20260506071340 23 181 0.0 0.0 0.00 0.00 0.00 87 1010.4
20260506071020 23 181 0.0 0.0 0.00 0.00 0.00 87 1008.0
20260506070834 23 181 0.0 0.0 0.00 0.00 0.00 87 1010.3
20260506070506 23 181 0.0 0.0 0.00 0.00 0.00 87 1008.0
20260506070330 23 181 0.0 0.0 0.00 0.00 0.00 87 1010.4
20260506062503 23 224 0.0 0.0 0.00 0.00 0.00 87 1007.9
20260506062341 23 225 0.0 0.0 0.00 0.00 0.00 87 1010.3
20260506062034 23 224 0.0 0.0 0.00 0.00 0.00 87 1007.9
20260506061816 23 225 0.0 0.0 0.00 0.00 0.00 87 1010.2
20260506061528 23 225 0.0 0.0 0.00 0.00 0.00 86 1007.9
20260506061331 23 225 0.0 0.0 0.00 0.00 0.00 87 1010.2
20260506061014 23 225 0.0 0.0 0.00 0.00 0.00 86 1007.7
20260506060828 23 225 0.0 0.0 0.00 0.00 0.00 86 1010.1
20260506060510 23 225 0.0 0.0 0.00 0.00 0.00 86 1007.8
20260506060323 23 225 0.0 0.0 0.00 0.00 0.00 86 1010.2
20260506060105 23 226 0.0 0.0 0.00 0.00 0.00 86 1007.7
20260506051348 24 189 0.0 0.0 0.00 0.00 0.00 85 1009.4
20260506051100 23 199 0.0 0.0 0.00 0.00 0.00 85 1006.9
20260506050823 24 205 0.0 0.0 0.00 0.00 0.00 85 1009.4
20260506050554 23 185 0.0 0.0 0.00 0.00 0.00 85 1007.1
20260506050319 24 184 0.0 0.0 0.00 0.00 0.00 85 1009.4
20260506045016 23 204 0.0 0.0 0.00 0.00 0.00 84 1007.1
20260506044816 24 199 0.0 0.0 0.00 0.00 0.00 84 1009.4
20260506044608 24 171 0.0 0.0 0.00 0.00 0.00 84 1007.2
20260506044333 24 185 0.0 0.0 0.00 0.00 0.00 84 1009.4
20260506044048 24 206 0.0 0.0 0.00 0.00 0.00 84 1007.1
20260506043827 24 164 0.0 0.0 0.00 0.00 0.00 84 1009.4
20260506043522 24 152 0.0 0.0 0.00 0.00 0.00 83 1006.9
20260506043324 24 196 0.0 0.0 0.00 0.00 0.00 84 1009.3
20260506043019 24 213 0.0 0.0 0.00 0.00 0.00 83 1007.0
20260506042840 24 187 0.0 0.0 0.00 0.00 0.00 83 1009.2
20260506042544 24 179 0.0 0.0 0.00 0.00 0.00 83 1007.1
20260506042316 24 188 0.0 0.0 0.00 0.00 0.00 83 1009.3
20260506042035 24 154 0.0 0.0 0.00 0.00 0.00 83 1006.9
20260506041832 24 170 0.0 0.0 0.00 0.00 0.00 83 1009.2
20260506041530 24 208 0.0 0.0 0.00 0.00 0.00 83 1006.9
20260506041329 24 174 0.0 0.0 0.00 0.00 0.00 83 1009.2
20260506041024 24 193 0.0 0.0 0.00 0.00 0.00 83 1006.7
20260506040824 24 136 0.0 0.0 0.00 0.00 0.00 83 1009.1
20260506040520 24 175 0.0 0.0 0.00 0.00 0.00 83 1006.8
20260506040338 24 180 0.0 0.0 0.00 0.00 0.00 83 1009.0
20260506040040 24 171 0.0 0.0 0.00 0.00 0.00 83 1006.8
20260506035813 24 168 0.0 0.0 0.00 0.00 0.00 83 1009.2
20260506035534 23 181 0.0 0.0 0.00 0.00 0.00 83 1006.7
20260506035330 24 189 0.0 0.0 0.00 0.00 0.00 83 1009.1
20260506035028 23 168 0.0 0.0 0.00 0.00 0.00 83 1006.7
20260506034825 24 183 0.0 0.0 0.00 0.00 0.00 83 1009.0
20260506034524 23 164 0.0 0.0 0.00 0.00 0.00 83 1006.7
20260506034339 24 217 0.0 0.0 0.00 0.00 0.00 83 1009.1
20260506034044 23 198 0.0 0.0 0.00 0.00 0.00 83 1006.6
20260506033814 23 163 0.0 0.0 0.00 0.00 0.00 83 1008.9
20260506033538 23 188 0.0 0.0 0.00 0.00 0.00 83 1006.5
20260506033331 23 193 0.0 0.0 0.00 0.00 0.00 83 1008.8
20260506033034 23 180 0.0 0.0 0.00 0.00 0.00 83 1006.4
20260506032827 23 195 0.0 0.0 0.00 0.00 0.00 83 1008.8
20260506032525 23 161 0.0 0.0 0.00 0.00 0.00 83 1006.5
20260506032323 23 176 0.0 0.0 0.00 0.00 0.00 83 1008.9
20260506032011 23 164 0.0 0.0 0.00 0.00 0.00 83 1006.6
20260506031820 23 160 0.0 0.0 0.00 0.00 0.00 82 1008.9
20260506031604 23 156 0.0 0.0 0.00 0.00 0.00 82 1006.5
20260506031335 24 157 0.0 0.0 0.00 0.00 0.00 82 1008.9
20260506031032 23 136 0.0 0.0 0.00 0.00 0.00 82 1006.5
20260506030829 24 179 0.0 0.0 0.00 0.00 0.00 81 1008.8
20260506030553 23 179 0.0 0.0 0.00 0.00 0.00 81 1006.5
20260506030325 24 180 0.0 0.0 0.00 0.00 0.00 81 1008.8
20260506030050 24 180 0.0 0.0 0.00 0.00 0.00 81 1006.4
20260506025821 24 179 0.0 0.0 0.00 0.00 0.00 81 1008.8
20260506025544 24 180 0.0 0.0 0.00 0.00 0.00 80 1006.5
20260506025318 24 179 0.0 0.0 0.00 0.00 0.00 80 1008.8
20260506025036 24 179 0.0 0.0 0.00 0.00 0.00 80 1006.3
20260506024814 25 179 0.0 0.0 0.00 0.00 0.00 80 1008.6
20260506024529 24 166 0.0 0.0 0.00 0.00 0.00 80 1006.3
20260506024333 25 172 0.0 0.0 0.00 0.00 0.00 80 1008.5
20260506024012 24 191 0.0 0.0 0.00 0.00 0.00 80 1006.1
20260506023827 25 179 0.0 0.0 0.00 0.00 0.00 79 1008.5
20260506023503 24 190 0.0 0.0 0.00 0.00 0.00 79 1006.0
20260506023322 25 158 0.0 0.0 0.00 0.00 0.00 79 1008.3
20260506023057 24 189 0.0 0.0 0.00 0.00 0.00 79 1005.8
20260506022821 25 178 0.0 0.0 0.00 0.00 0.00 79 1008.1
20260506022548 25 178 0.0 0.0 0.00 0.00 0.00 78 1005.6
20260506022315 25 175 0.0 0.0 0.00 0.00 0.00 78 1008.0
20260506022038 25 175 0.0 0.0 0.00 0.00 0.00 78 1005.7
20260506021831 25 174 0.0 4.8 0.00 0.00 0.00 78 1008.1
20260506021528 25 154 0.0 9.7 0.00 0.00 0.00 78 1005.7
20260506021347 25 154 0.0 9.7 0.00 0.00 0.00 77 1008.1
20260506021055 25 154 1.6 9.7 0.00 0.00 0.00 77 1005.8
20260506020822 25 154 6.4 9.7 0.00 0.00 0.00 77 1008.1
20260506020544 25 143 4.8 8.0 0.00 0.00 0.00 76 1005.6
20260506020318 25 175 4.8 8.0 0.00 0.00 0.00 76 1007.9
20260506020106 25 175 4.8 8.0 0.00 0.00 0.00 76 1005.6
20260506015833 26 175 4.8 8.0 0.00 0.00 0.00 76 1008.0
20260506015528 25 174 4.8 8.0 0.00 0.00 0.00 76 1005.4
20260506015331 26 175 8.0 9.7 0.00 0.00 0.00 75 1007.7
20260506015013 26 183 0.0 0.0 0.00 0.00 0.00 75 1005.4
20260506014825 26 182 0.0 8.0 0.00 0.00 0.00 75 1007.6
20260506014507 26 178 0.0 11.3 0.00 0.00 0.00 75 1005.3
20260506014322 26 179 0.0 11.3 0.00 0.00 0.00 75 1007.6
20260506014100 26 168 3.2 12.9 0.00 0.00 0.00 74 1005.2
20260506013817 26 161 8.0 12.9 0.00 0.00 0.00 74 1007.6
20260506013552 26 174 6.4 12.9 0.00 0.00 0.00 74 1005.1
20260506013315 26 187 9.7 12.9 0.00 0.00 0.00 74 1007.4
20260506013042 26 162 0.0 8.0 0.00 0.00 0.00 74 1005.0
20260506012829 26 183 0.0 0.0 0.00 0.00 0.00 73 1007.4
20260506012536 26 199 0.0 0.0 0.00 0.00 0.00 73 1004.9
20260506012326 26 167 0.0 0.0 0.00 0.00 0.00 73 1007.3
20260506012031 26 181 0.0 0.0 0.00 0.00 0.00 73 1004.9
20260506011822 27 164 0.0 0.0 0.00 0.00 0.00 73 1007.3
20260506011527 26 181 0.0 0.0 0.00 0.00 0.00 72 1005.0
20260506011318 27 194 0.0 0.0 0.00 0.00 0.00 72 1007.4
20260506011016 26 168 0.0 0.0 0.00 0.00 0.00 72 1005.0
20260506010815 27 162 0.0 0.0 0.00 0.00 0.00 72 1007.4